Regional Weather Roundup
Issued by NWS Jackson, KY

Home | Current Version | Previous Version | Graphics & Text | Print | Product List | Glossary On
Versions: 1 2 3 4 5 6 7 8 9 10 11 12 13 14 15 16 17 18 19 20 21 22 23 24 25 26 27
000
ASUS43 KJKL 260410
RWRJKL

EAST KENTUCKY HOURLY WEATHER ROUNDUP
NATIONAL WEATHER SERVICE JACKSON KY
1200 AM EDT WED APR 26 2017

NOTE: "FAIR" INDICATES FEW OR NO CLOUDS BELOW 12,000 FEET WITH
NO SIGNIFICANT WEATHER AND/OR OBSTRUCTIONS TO VISIBILITY.

* THESE REPORTS ARE NOT UNDER NWS QUALITY CONTROL AND MAY NOT
  REPORT WEATHER SUCH AS PRECIPITATION AND FOG.

KYZ079-080-083-085-087-088-110-112-115-119-120-260500
...EASTERN KENTUCKY...

CITY           SKY/WX    TMP DP  RH WIND       PRES   REMARKS
JACKSON        CLEAR     62  55  77 CALM      29.75F
LONDON         CLEAR     58  55  90 CALM      29.75F
SOMERSET*      CLEAR     54  54 100 CALM      29.76S
MONTICELLO*    CLEAR     54  53  97 W9        29.76S
WILLIAMSBURG*  CLEAR     61  57  88 CALM      29.76S
MIDDLESBORO*   CLEAR     55  55 100 CALM      29.79S
HARLAN APT*    CLEAR     59  54  82 CALM      29.78F
PIKE CO APT*     N/A     61  57  87 CALM      29.76
MOREHEAD APT*  CLEAR     63  55  77 CALM      29.75S
$$

KYZ035-036-041-042-044-050-067-078-099-260500
...CENTRAL KENTUCKY...

CITY           SKY/WX    TMP DP  RH WIND       PRES   REMARKS
MT STERLING*   CLEAR     55  55 100 SW5       29.75S
FLEMING/MASON* CLEAR     62  56  83 SE6       29.74S
DANVILLE*      CLEAR     54  54 100 CALM      29.74S
LEXINGTON      CLEAR     61  54  77 SE6       29.72S
FRANKFORT      CLEAR     63  54  72 S6        29.70S
LOUISVILLE     PTCLDY    66  57  72 SE9       29.68S
GLASGOW*       CLEAR     64  55  72 SE3       29.70S
BOWLING GREEN  PTCLDY    63  57  81 SE5       29.68F
$$

KYZ091>093-OHZ055-061-077-WVZ005-015-034-035-042-260500
...SOUTHERN OHIO/WEST VIRGINIA...

CITY           SKY/WX    TMP DP  RH WIND       PRES   REMARKS
COVINGTON      PTCLDY    63  56  78 SW6       29.70R
COLUMBUS       PTCLDY    64  55  72 E12       29.72S
DAYTON         CLOUDY    62  55  77 SE8       29.70S
WILMINGTON     CLEAR     62  56  80 SE6       29.71S
HUNTINGTON     CLEAR     59  55  87 CALM      29.73S
CHARLESTON     CLOUDY    61  58  90 CALM      29.73F
PINEVILLE*     CLEAR     55  53  95 MISG      29.82F
BECKLEY        CLOUDY    58  55  90 S5        29.80S
BLUEFIELD      CLOUDY    56  55  97 CALM      29.81F
LOGAN CO APT*    N/A     61  57  88 CALM      29.76F
$$

VAZ002-007-008-TNZ017-027-036-066-071-260500
...SOUTHWEST VIRGINIA/EAST TENNESSEE...

CITY           SKY/WX    TMP DP  RH WIND       PRES   REMARKS
WISE*          CLEAR     54  54 100 CALM      29.82S FOG
JONESVILLE*      N/A     55  55 100 CALM      29.81S
ABINGDON*      CLEAR     59  57  94 CALM      29.81S
BRISTOL        CLEAR     54  53  97 CALM      29.80R FOG
MORRISTOWN*    CLEAR     57  57 100 CALM      29.78
KNOXVILLE      PTCLDY    61  54  77 CALM      29.76S
LAFOLLETTE*    CLEAR     57  57 100 CALM      29.80S
OAK RIDGE      CLEAR     59  56  89 CALM      29.78S
CROSSVILLE     CLEAR     56  53  90 CALM      29.78F
NASHVILLE      CLEAR     61  56  83 S6        29.69F
$$

...KEY TO REMARKS...
VSB - VISIBILITY IN MILES
WCI - WIND CHILL INDEX
HX  - HEAT INDEX

$$




USA.gov is the U.S. government's official web portal to all federal, state and local government web resources and services.